Regional Weather Roundup
Issued by NWS Upton, NY

Current Version | Previous Version | Text Only | Print | Product List | Glossary Off
Versions: 1 2 3 4 5 6 7 8 9 10 11 12 13 14 15 16 17 18 19 20 21 22 23 24 25 26 27 28 29 30 31 32 33 34 35 36 37 38 39 40 41 42 43 44 45 46 47 48 49 50
968 ASUS41 KOKX 271109 RWROKX REGIONAL WEATHER ROUNDUP NATIONAL WEATHER SERVICE NEW YORK NY 700 AM EDT TUE JUN 27 2017 NOTE: "FAIR" INDICATES FEW OR NO CLOUDS BELOW 12,000 FEET WITH NO SIGNIFICANT WEATHER AND/OR OBSTRUCTIONS TO VISIBILITY. NYZ071-072-176-178-NJZ106-104-271200- NEW YORK CITY METRO AREA CITY SKY/WX TMP DP RH WIND PRES REMARKS Central Park CLOUDY 61 60 97 CALM 30.03F Bronx Bot Gard N/A 59 57 94 SE6 30.02F LaGuardia APRT PTSUNNY 63 60 90 E7 29.99F Kennedy INTL PTSUNNY 62 60 93 NE8 30.00F Breezy Point N/A 59 N/A N/A E7 N/A Newark/Liberty PTSUNNY 63 59 87 E3 30.00F Teterboro CLOUDY 61 58 90 CALM 30.00F $$ NYZ177-179-078>081-271200- LONG ISLAND NEW YORK CITY SKY/WX TMP DP RH WIND PRES REMARKS Jones Beach N/A 61 N/A N/A NE12 N/A Matinecock PT N/A N/A N/A N/A SE3 N/A Farmingdale NOT AVBL MacArthur/ISP PTSUNNY 64 61 90 NW12 30.02R Shirley NOT AVBL Mt Sinai Harb N/A N/A N/A N/A NW7 N/A Westhampton NOT AVBL East Hampton CLOUDY 64 63 96 CALM 30.01S Montauk N/A 69 65 86 SW3 30.02S $$ NYZ052-065-067-271200- HUDSON VALLEY CITY SKY/WX TMP DP RH WIND PRES REMARKS White Plains LGT RAIN 59 57 94 SE5 30.01F Larchmont Harb N/A 61 N/A N/A NE13 N/A Croton O-T Hud N/A 59 N/A N/A E2 N/A Newburgh PTSUNNY 59 57 94 CALM 30.02R Montgomery NOT AVBL Poughkeepsie NOT AVBL Albany CLOUDY 58 55 90 CALM 30.00R $$ NJZ001-105-106-008-010-013-015-019>022-104-271200- NEW JERSEY CITY SKY/WX TMP DP RH WIND PRES REMARKS Newark/Liberty PTSUNNY 63 59 87 E3 30.00F Teterboro CLOUDY 61 58 90 CALM 30.00F Caldwell NOT AVBL Somerville NOT AVBL Linden PTSUNNY 62 58 86 CALM 30.01R Perth Amboy N/A 61 N/A N/A NE5 N/A Sussex NOT AVBL Andover N/A 59 57 93 CALM 30.01S Trenton PTSUNNY 61 59 94 CALM 30.00R Millville NOT AVBL Atlantic City SUNNY 65 57 75 CALM 30.00 Wrightstown MOSUNNY 60 58 93 NE3 29.98R Toms River NOT AVBL Belmar NOT AVBL $$ PAZ047>061-062-071-271200- EASTERN PENNSYLVANIA CITY SKY/WX TMP DP RH WIND PRES REMARKS Philadelphia PTSUNNY 64 60 87 CALM 30.01R Allentown NOT AVBL Scranton NOT AVBL $$ CTZ002-004>006-009-010-012-RIZ004-006-007-MAZ004-011-015-271200- SOUTHERN NEW ENGLAND IN CT CITY SKY/WX TMP DP RH WIND PRES REMARKS Bradley INTL LGT RAIN 59 55 87 SW5 30.02R Hartford LGT RAIN 62 57 83 S3 30.02R Danbury LGT RAIN 57 57 100 CALM 30.03 Wtrbury/Oxford LGT RAIN 57 52 82 W5 30.05R FOG Bridgeport LGT RAIN 64 57 77 W5 30.03R Meriden LGT RAIN 60 56 86 CALM 30.03R New Haven CLOUDY 61 55 82 N6 30.03R Chester FAIR 61 59 94 W5 30.03R Groton CLOUDY 64 61 90 CALM 30.01R Wilimantic CLOUDY 59 56 89 CALM 30.02R IN RI CITY SKY/WX TMP DP RH WIND PRES REMARKS Providence PTSUNNY 64 60 87 SW3 30.02R Block Island SUNNY 67 62 84 W7 30.02S Westerly FOG 63 62 97 CALM 30.02R VSB 3/4 IN MA CITY SKY/WX TMP DP RH WIND PRES REMARKS Boston MOSUNNY 64 56 75 S6 30.00S Worcester PTSUNNY 60 51 72 CALM 30.01S Westfield PTSUNNY 57 56 96 SW3 30.00S Provincetown SUNNY 66 61 84 S12 30.02S Nantucket SUNNY 64 59 83 SE8 30.03S $$ ANZ330-335-338-340-345-350-353-355-271200- COASTAL MARINE OBSERVATIONS STATION/POSITION TIME SKY/WX TEMP WIND PRES VSBY WAVE AIR SEA DIR/SP/G HT/PER (UTC) (F) (DEG/KT/KT) (MB) (MI) (FT/S) NY HARB ENTRANCE 0950 68 67 330/ 8/ 10 1016.4 1/ 8 20 S FIRE ISLAND 1050 68 69 270/ 8/ 10 1015.5 2/ 4 GREAT SOUTH BAY 0945 68 75 360/ 2/ 6 N/A 23 SSW MONTAUK P 0950 67 65 1016.1 2/ 7 15 E BARNEGAT LI 1030 65 N/A 2/ 8 HUDSON CANYON 0950 68 67 170/ 8/ 8 1015.8 2/ 8 KINGS POINT 1030 61 65 90/ 3/ 4 1016.4 EXECUTION ROCKS 1045 62 110/ 8/ 12 N/A CENTRAL LI SOUND 1030 66 70/ 6/ 8 N/A 1 EASTERN LI SOUND NOT AVBL ROBBINS REEF 1024 90/ 9/ 11 1016.5 $$ >>>>>>>>>>>>>>>>>>>>>>>>>>>> KEY <<<<<<<<<<<<<<<<<<<<<<<<<<< > < > SKY/WX - Sky Condition/Present Weather < > TMP - Temperature in Fahrenheit < > DP - Dew Point in Fahrenheit < > RH - Relative Humidity in Percent < > WIND - Direction (from) and Speed in MPH < > PRES - Mean Sea Level Pressure (inches of Hg) < > WCI - Wind Chill Index < > VSB - VISIBILITY IN MILES < > HX - HEAT INDEX < > TC - TEMPERATURE IN CELSIUS < > VRB - VARIABLE WIND DIRECTION < > < >>>>>>>>>>>>>>>>>>>>>>>>>>>> KEY <<<<<<<<<<<<<<<<<<<<<<<<<<<

USA.gov is the U.S. government's official web portal to all federal, state and local government web resources and services.